Total_Precipitation_Accumulation
0.00 0.00 0.00 0.00 0.00 0.00 0.00 0.00 0.01 0.02 0.01 0.01 0.03 0.09 0.21 0.27 0.27 0.25 0.24 0.29 0.56 0.99 1.25 1.39 1.56 1.67 1.86 2.08 2.32 2.56 2.79 2.93 2.80 2.82 2.87 2.83 2.54 2.43 2.21 1.99 1.77 1.69 1.66 1.80
0.00 0.01 0.00 0.00 0.00 0.01 0.01 0.01 0.01 0.02 0.01 0.02 0.04 0.12 0.24 0.28 0.31 0.27 0.25 0.35 0.50 0.77 1.12 1.25 1.33 1.49 1.65 1.88 2.32 2.73 2.69 2.61 2.54 2.75 3.03 3.21 3.18 2.80 2.26 2.04 1.92 1.70 1.63 1.74
0.01 0.02 0.01 0.00 0.00 0.01 0.01 0.01 0.03 0.02 0.01 0.03 0.06 0.23 0.34 0.32 0.39 0.41 0.40 0.47 0.59 0.74 0.87 1.00 1.03 1.12 1.28 1.55 1.88 2.01 1.81 1.85 1.84 1.94 2.20 2.39 2.64 2.50 2.20 1.94 1.81 1.71 1.64 1.63
0.01 0.01 0.00 0.00 0.01 0.01 0.02 0.02 0.01 0.01 0.01 0.04 0.08 0.25 0.44 0.62 0.71 0.59 0.55 0.58 0.78 0.89 0.89 0.93 0.99 1.08 1.10 1.07 1.05 1.06 1.13 1.23 1.34 1.48 1.72 1.99 2.26 2.23 2.14 2.07 1.82 1.63 1.48 1.41
0.02 0.01 0.01 0.02 0.02 0.02 0.03 0.02 0.01 0.01 0.02 0.04 0.10 0.23 0.52 0.82 0.88 0.68 0.63 0.69 0.87 0.84 0.78 0.81 0.87 0.92 0.91 0.90 0.92 0.92 1.02 1.17 1.29 1.40 1.55 1.74 2.09 2.08 1.90 1.76 1.61 1.52 1.44 1.36
0.03 0.02 0.02 0.02 0.02 0.02 0.02 0.02 0.02 0.03 0.06 0.16 0.20 0.27 0.56 0.82 0.72 0.68 0.66 0.67 0.71 0.67 0.69 0.74 0.75 0.76 0.76 0.77 0.86 0.92 0.94 1.03 1.11 1.17 1.27 1.32 1.48 1.54 1.45 1.38 1.33 1.26 1.18 1.16
0.10 0.08 0.05 0.03 0.03 0.03 0.03 0.05 0.16 0.31 0.40 0.46 0.35 0.46 0.89 0.81 0.68 0.65 0.66 0.69 0.71 0.68 0.61 0.63 0.68 0.69 0.73 0.73 0.76 0.82 0.86 0.90 0.88 0.85 0.82 0.83 0.93 1.06 1.10 1.10 1.10 1.08 0.97 0.91
0.19 0.20 0.12 0.05 0.04 0.06 0.08 0.13 0.33 0.38 0.34 0.36 0.36 0.70 1.04 0.71 0.65 0.62 0.55 0.53 0.51 0.48 0.45 0.45 0.48 0.53 0.58 0.62 0.64 0.66 0.69 0.72 0.74 0.74 0.75 0.71 0.74 0.84 0.92 1.00 0.97 0.94 0.84 0.74
0.11 0.12 0.06 0.04 0.04 0.07 0.16 0.21 0.21 0.34 0.34 0.37 0.46 0.72 0.80 0.65 0.64 0.58 0.56 0.53 0.49 0.44 0.40 0.37 0.38 0.41 0.40 0.41 0.43 0.47 0.53 0.61 0.66 0.69 0.70 0.63 0.66 0.79 0.85 0.91 0.94 0.97 0.96 0.88
0.04 0.05 0.06 0.04 0.05 0.10 0.12 0.13 0.20 0.31 0.34 0.35 0.37 0.65 0.92 0.92 0.84 0.73 0.78 0.69 0.57 0.45 0.36 0.31 0.27 0.26 0.25 0.28 0.34 0.45 0.58 0.63 0.58 0.55 0.52 0.49 0.57 0.75 0.80 0.76 0.77 0.89 0.94 0.94
0.02 0.02 0.05 0.08 0.07 0.09 0.12 0.14 0.21 0.27 0.26 0.32 0.39 0.55 0.50 0.65 0.76 0.77 0.71 0.64 0.52 0.40 0.33 0.29 0.23 0.19 0.19 0.22 0.28 0.39 0.47 0.53 0.52 0.46 0.42 0.39 0.43 0.50 0.58 0.63 0.65 0.72 0.79 0.85
0.01 0.03 0.06 0.10 0.08 0.06 0.09 0.13 0.22 0.35 0.36 0.40 0.47 0.54 0.33 0.40 0.47 0.47 0.42 0.36 0.31 0.27 0.23 0.20 0.19 0.19 0.20 0.23 0.28 0.33 0.36 0.38 0.41 0.39 0.38 0.39 0.39 0.38 0.37 0.41 0.47 0.51 0.57 0.62
0.01 0.05 0.10 0.24 0.28 0.16 0.15 0.12 0.16 0.21 0.28 0.32 0.42 0.48 0.35 0.37 0.40 0.44 0.45 0.41 0.32 0.25 0.22 0.21 0.20 0.20 0.22 0.27 0.31 0.34 0.39 0.39 0.41 0.39 0.38 0.41 0.40 0.38 0.33 0.32 0.35 0.37 0.38 0.38
0.02 0.03 0.06 0.12 0.12 0.08 0.12 0.14 0.17 0.22 0.31 0.30 0.29 0.37 0.45 0.48 0.48 0.44 0.42 0.40 0.35 0.25 0.18 0.19 0.21 0.22 0.24 0.27 0.28 0.28 0.33 0.39 0.44 0.48 0.55 0.55 0.50 0.45 0.38 0.32 0.30 0.29 0.29 0.29
0.01 0.01 0.01 0.03 0.04 0.07 0.10 0.11 0.15 0.18 0.22 0.34 0.27 0.28 0.37 0.40 0.43 0.41 0.34 0.29 0.25 0.21 0.19 0.19 0.22 0.25 0.25 0.25 0.26 0.26 0.29 0.33 0.37 0.43 0.53 0.58 0.53 0.47 0.42 0.34 0.28 0.27 0.27 0.24
0.01 0.01 0.01 0.04 0.09 0.12 0.13 0.13 0.13 0.12 0.12 0.17 0.20 0.25 0.22 0.22 0.27 0.30 0.28 0.26 0.24 0.23 0.20 0.17 0.17 0.17 0.20 0.21 0.20 0.21 0.23 0.25 0.27 0.31 0.38 0.45 0.47 0.44 0.39 0.32 0.27 0.25 0.23 0.24
0.02 0.02 0.02 0.04 0.09 0.13 0.21 0.17 0.12 0.09 0.07 0.13 0.26 0.30 0.21 0.22 0.26 0.27 0.22 0.19 0.18 0.15 0.12 0.10 0.12 0.12 0.11 0.10 0.12 0.17 0.19 0.21 0.28 0.31 0.33 0.40 0.47 0.46 0.37 0.27 0.26 0.26 0.28 0.30
0.04 0.03 0.04 0.07 0.10 0.21 0.18 0.06 0.05 0.06 0.05 0.05 0.14 0.16 0.15 0.16 0.15 0.12 0.10 0.09 0.08 0.06 0.05 0.04 0.04 0.05 0.05 0.05 0.09 0.14 0.18 0.25 0.31 0.35 0.39 0.44 0.47 0.47 0.43 0.37 0.36 0.39 0.42 0.42
0.03 0.02 0.02 0.05 0.09 0.12 0.07 0.04 0.06 0.07 0.08 0.03 0.06 0.08 0.07 0.05 0.07 0.08 0.04 0.02 0.01 0.01 0.01 0.01 0.02 0.03 0.04 0.07 0.12 0.19 0.28 0.36 0.40 0.42 0.43 0.46 0.52 0.59 0.59 0.53 0.48 0.49 0.51 0.48
0.02 0.02 0.02 0.03 0.08 0.12 0.07 0.05 0.05 0.06 0.14 0.07 0.04 0.04 0.03 0.03 0.10 0.13 0.04 0.00 0.00 0.00 0.01 0.01 0.03 0.05 0.08 0.12 0.16 0.25 0.35 0.43 0.48 0.47 0.45 0.47 0.53 0.61 0.67 0.68 0.62 0.57 0.59 0.53
0.02 0.02 0.02 0.03 0.06 0.06 0.03 0.03 0.04 0.12 0.19 0.03 0.01 0.01 0.01 0.03 0.07 0.06 0.02 0.00 0.00 0.01 0.01 0.02 0.06 0.09 0.11 0.12 0.18 0.29 0.39 0.46 0.45 0.44 0.47 0.54 0.61 0.67 0.71 0.78 0.77 0.74 0.68 0.63
0.02 0.02 0.02 0.03 0.08 0.09 0.01 0.01 0.02 0.04 0.03 0.01 0.01 0.01 0.01 0.01 0.01 0.00 0.00 0.01 0.01 0.01 0.02 0.04 0.09 0.13 0.13 0.14 0.22 0.32 0.38 0.41 0.45 0.48 0.54 0.61 0.68 0.66 0.70 0.92 0.96 0.98 0.93 0.79
0.01 0.01 0.01 0.02 0.04 0.02 0.01 0.00 0.01 0.01 0.01 0.01 0.01 0.01 0.01 0.01 0.01 0.01 0.01 0.01 0.01 0.01 0.03 0.06 0.11 0.15 0.19 0.25 0.32 0.40 0.38 0.42 0.50 0.59 0.65 0.65 0.65 0.73 0.83 0.93 0.96 0.96 0.93 0.88
0.00 0.01 0.01 0.03 0.02 0.01 0.01 0.01 0.01 0.00 0.00 0.00 0.00 0.01 0.01 0.01 0.01 0.01 0.01 0.02 0.02 0.03 0.06 0.10 0.16 0.25 0.33 0.41 0.44 0.44 0.45 0.52 0.63 0.72 0.77 0.78 0.77 0.76 0.80 0.93 0.95 0.93 0.86 0.85
0.00 0.00 0.02 0.04 0.02 0.01 0.01 0.01 0.00 0.00 0.00 0.00 0.00 0.01 0.01 0.02 0.02 0.02 0.02 0.03 0.04 0.05 0.08 0.13 0.22 0.32 0.36 0.43 0.53 0.55 0.63 0.75 0.83 0.80 0.78 0.79 0.84 0.91 0.95 0.94 0.94 0.92 0.89 0.78
0.01 0.02 0.03 0.04 0.04 0.04 0.03 0.01 0.00 0.00 0.00 0.01 0.01 0.01 0.02 0.03 0.03 0.02 0.02 0.03 0.04 0.07 0.11 0.17 0.25 0.33 0.39 0.48 0.56 0.62 0.72 0.84 0.96 0.94 0.85 0.86 0.88 0.91 0.95 0.95 0.86 0.74 0.66 0.56